This is the latest recevied weather packets stored in our database for station/object NO3U. If no packets are shown the sender has not sent any weather packets the latest 10 day(s).
| Time | Temp. | Humidity | Pressure | Rain* | Wind** | Luminosity | Snow |
|---|---|---|---|---|---|---|---|
| 1777497753 | 13.89° C | 99% | 1007.3 hPa | 0 mm | - | 35 W/m² | - |
| 1777497450 | 13.89° C | 99% | 1007.3 hPa | 0 mm | - | 58 W/m² | - |
| 1777497146 | 13.89° C | 99% | 1007 hPa | 0 mm | - | 66 W/m² | - |
| 1777496843 | 14.44° C | 99% | 1007 hPa | 0 mm | - | 115 W/m² | - |
| 1777496540 | 13.89° C | 99% | 1006.8 hPa | 0 mm | - | 189 W/m² | - |
| 1777496235 | 13.89° C | 99% | 1006.7 hPa | 0 mm | - | 133 W/m² | - |
| 1777495932 | 13.89° C | 99% | 1006.8 hPa | 0 mm | - | 38 W/m² | - |
| 1777495627 | 13.89° C | 99% | 1006.8 hPa | 0 mm | - | 51 W/m² | - |
| 1777495324 | 13.89° C | 99% | 1006.5 hPa | 0 mm | - | 84 W/m² | - |
| 1777495021 | 13.89° C | 99% | 1006.6 hPa | 0 mm | - | 100 W/m² | - |
| 1777494718 | 13.89° C | 99% | 1006.8 hPa | 1.27 mm | - | 35 W/m² | - |
| 1777494416 | 13.89° C | 99% | 1007 hPa | 3.05 mm | - | 46 W/m² | - |
| 1777494112 | 13.89° C | 99% | 1006.8 hPa | 3.05 mm | - | 57 W/m² | - |
| 1777493809 | 13.89° C | 99% | 1006.8 hPa | 1.27 mm | - | 53 W/m² | - |
| 1777493508 | 13.89° C | 99% | 1006.7 hPa | 0 mm | - | 40 W/m² | - |
| 1777493204 | 13.89° C | 99% | 1007.1 hPa | 0 mm | - | 48 W/m² | - |
| 1777492900 | 13.89° C | 99% | 1007.1 hPa | 0 mm | - | 53 W/m² | - |
| 1777492597 | 13.89° C | 99% | 1007 hPa | 0 mm | - | 62 W/m² | - |
| 1777492292 | 13.89° C | 99% | 1007.1 hPa | 0 mm | - | 77 W/m² | - |
| 1777491990 | 13.89° C | 99% | 1007.1 hPa | 0 mm | - | 98 W/m² | - |
| 1777491686 | 13.89° C | 99% | 1007.3 hPa | 0 mm | - | 123 W/m² | - |
| 1777491384 | 13.89° C | 99% | 1007.1 hPa | 0 mm | - | 121 W/m² | - |
| 1777491080 | 13.89° C | 99% | 1006.9 hPa | 1.78 mm | - | 92 W/m² | - |
| 1777490775 | 13.89° C | 99% | 1006.9 hPa | 1.78 mm | - | 183 W/m² | - |
| 1777490473 | 13.89° C | 99% | 1006.6 hPa | 0 mm | - | 80 W/m² | - |
* Rain latest hour (hover to see other rain measurements)
** Current wind speed in m/s (hover to see current wind gust speed)